Regional Weather Roundup
Issued by NWS

Home | Current Version | Previous Version | Graphics & Text | Print | Product List | Glossary Off
Versions: 1 2 3 4 5 6 7 8 9 10 11 12 13 14 15 16 17 18 19 20 21 22 23 24 25 26 27 28 29 30 31 32 33 34 35 36 37 38 39 40 41 42 43 44 45 46 47 48 49 50

000
ASUS43 KMPX 052110
RWRMN
WEATHER ROUNDUP FOR MINNESOTA
NATIONAL WEATHER SERVICE TWIN CITIES/CHANHASSEN MN
400 PM CDT SUN JUL 05 2015


NOTE: "FAIR" INDICATES FEW OR NO CLOUDS BELOW 12,000 FEET WITH NO
SIGNIFICANT WEATHER AND/OR OBSTRUCTIONS TO VISIBILITY. N/A MEANS
CURRENT SKY AND/OR WEATHER CONDITIONS ARE NOT AVAILABLE.

MNZ060>063-068>070-052200-
   Twin Cities Metro

CITY           SKY/WX    TMP DP  RH WIND       PRES   REMARKS
TWIN CITIES    PTSUNNY   87  69  54 SE15G21   29.85F HX  91
ST PAUL        MOSUNNY   86  70  58 S16G24    29.85F HX  90
CRYSTAL        MOSUNNY   88  69  53 SE18G24   29.82F HX  92
BLAINE         PTSUNNY   88  70  55 SE15G22   29.84F HX  92
LAKEVILLE      MOSUNNY   82  72  69 S13G20    29.86F
EDEN PRAIRIE   MOSUNNY   86  71  60 S16       29.84F HX  91
SOUTH ST PAUL  MOSUNNY   85  67  54 S14G21    29.86F
LAKE ELMO      FAIR      84  70  61 S13       29.88F
$$
MNZ001>005-007-008-013>017-022>024-027-028-052200-
   Northwest Minnesota

CITY           SKY/WX    TMP DP  RH WIND       PRES   REMARKS
BEMIDJI        CLOUDY    74  64  71 N6        29.78S
HALLOCK        CLOUDY    72  66  83 NW10      29.77S
ROSEAU         CLOUDY    70  64  83 NW12      29.73S
WARROAD        CLOUDY    72  68  88 NW9       29.73S
THIEF RVR FALL CLOUDY    70  66  88 S6        29.77R
CROOKSTON      PTSUNNY   70  70 100 NW7       29.77R
FOSSTON        HVY RAIN  70  64  83 CALM      29.78R
DETROIT LAKES  CLOUDY    82  68  61 S10       29.77F
MOORHEAD       CLOUDY    82  70  65 CALM      29.75R
PARK RAPIDS    CLOUDY    84  66  54 SW9       29.78F
MAHNOMEN       MOCLDY    79  68  70 CALM      29.76R
$$
MNZ006-009>011-018-025>026-052200-
   North Central Minnesota

CITY           SKY/WX    TMP DP  RH WIND       PRES   REMARKS
BAUDETTE       LGT RAIN  69  64  84 VRB3      29.71F
FLAG ISLAND    CLOUDY    70  66  88 W9        29.71S
INTL FALLS     CLOUDY    78  66  66 W8G20     29.75F
WASKISH        LGT RAIN  73  66  78 SW7       29.76F
BIG FORK       CLOUDY    75  70  83 SW7       29.78R
LONGVILLE      CLOUDY    82  68  61 S9        29.79S
GRAND RAPIDS   CLOUDY    82  66  57 S13       29.80S
CRANE LAKE     CLOUDY    79  68  69 S6        29.77S
ORR            CLOUDY    79  64  61 CALM      29.75F
COOK           CLOUDY    81  68  65 SW8G18    29.78F
WALKER         FAIR      84  67  56 SW8       29.77S
$$
MNZ012-019>021-037-052200-
   Northeast Minnesota

CITY           SKY/WX    TMP DP  RH WIND       PRES   REMARKS
DULUTH         PTSUNNY   81  66  60 S13       29.84F
ELY            CLOUDY    81  64  57 S10G18    29.80F
HIBBING        CLOUDY    82  68  62 S9        29.78F
DULUTH HARBOR  CLOUDY    84  68  58 S14       29.82S
SILVER BAY     MOSUNNY   79  64  61 S7        29.82F
GRAND MARAIS     N/A     55  49  80 E5        29.85F
G MARAIS ARPRT MOSUNNY   73  61  64 S9        29.90F
$$
MNZ029>031-032-039>041-046>048-054>057-064-052200-
   West Central Minnesota

CITY           SKY/WX    TMP DP  RH WIND       PRES   REMARKS
FERGUS FALLS   PTSUNNY   82  70  65 SE13      29.73F
WHEATON        CLOUDY    82  70  65 SW5       29.76S
MORRIS         PTSUNNY   88  70  55 S10       29.76F HX  92
ALEXANDRIA     PTSUNNY   84  67  56 S14       29.82S
ELBOW LAKE     FAIR      82  70  66 S13       29.76F
WADENA         CLOUDY    82  64  54 S12       29.80S
GLENWOOD       MOSUNNY   88  70  55 S13G21    29.82S HX  92
APPLETON       MOSUNNY   91  66  43 S6        29.77R HX  94
BENSON         SUNNY     90  64  43 SW13      29.78S HX  91
ORTONVILLE     PTSUNNY   88  70  55 CALM      29.76F HX  92
MADISON        MOSUNNY   88  68  51 SW7       29.77S HX  91
WILLMAR          N/A     88  68  51 S9        29.82S HX  91
$$
MNZ033>034-036-042>043-049>051-058-059-052200-
   Central Minnesota

CITY           SKY/WX    TMP DP  RH WIND       PRES   REMARKS
ST CLOUD       PTSUNNY   85  69  58 S14G22    29.82F
SAUK CENTRE    FAIR      85  70  60 S13G21    29.82R
PAYNESVILLE    PTSUNNY   83  67  58 SE7G20    29.82F
AITKIN         CLOUDY    84  70  61 S13G18    29.79F
PINE RIVER       N/A     86  66  51 S12G17    29.82F
BRAINERD       CLOUDY    86  66  51 S14G23    29.81S
STAPLES        PTSUNNY   84  64  51 S7        29.81R
LONG PRAIRIE   FAIR      84  68  58 S10       29.82S
LITTLE FALLS   PTSUNNY   86  64  48 SE14      29.80F
LITCHFIELD     MOSUNNY   88  72  58 S8        29.82F HX  94
BUFFALO        MOSUNNY   85  68  56 S12       29.84S
MAPLE LAKE     MOSUNNY   86  73  65 S9G16     29.84S HX  92
$$
MNZ037-044-045-052-053-052200-
   East Central Minnesota

CITY           SKY/WX    TMP DP  RH WIND       PRES   REMARKS
PRINCETON      PTSUNNY   88  70  55 S12G22    29.83F HX  92
MORA           MOSUNNY   82  66  57 S14       29.84F
CAMBRIDGE      MOSUNNY   88  70  55 S13G18    29.81F HX  92
RUSH CITY      MOSUNNY   83  69  61 S14G20    29.84F
MOOSE LAKE     MOSUNNY   82  66  57 S13G20    29.81F
HINCKLEY       FAIR      82  70  65 S14G20    29.84S
CLOQUET        PTSUNNY   81  64  57 SE6G18    29.83F
MCGREGOR       PTSUNNY   82  66  57 S15       29.81F
$$
MNZ071>073-080-081-089-090-097-098-052200-
   Southwest Minnesota

CITY           SKY/WX    TMP DP  RH WIND       PRES   REMARKS
MONTEVIDEO     SUNNY     90  70  51 SW12      29.79S HX  95
GRANITE FALLS  MOSUNNY   87  69  55 S13       29.81F HX  91
CANBY          MOSUNNY   87  68  53 S5        29.80S HX  91
MARSHALL       SUNNY     90  66  45 S15G21    29.80  HX  92
REDWOOD FALLS  MOSUNNY   89  69  51 S17       29.81F HX  93
OLIVIA         MOSUNNY   88  66  48 S14       29.81F HX  90
PIPESTONE      MOSUNNY   84  66  54 S13       29.84S
WINDOM         MOSUNNY   88  70  55 S16G26    29.85F HX  92
WORTHINGTON    MOSUNNY   88  70  55 S16G24    29.86S HX  92
JACKSON        PTSUNNY   88  70  55 S16G24    29.88S HX  92
TRACY          MOSUNNY   89  68  49 S15G21    29.83F HX  92
SLAYTON        MOSUNNY   87  64  45 S13       29.86S
$$
MNZ065>067-074>077-082>085-091>093-052200-
   South Central Minnesota

CITY           SKY/WX    TMP DP  RH WIND       PRES   REMARKS
MANKATO        MOSUNNY   84  70  61 S14G22    29.86F
NEW ULM        MOSUNNY   84  70  61 S13G23    29.84S
FAIRMONT       MOSUNNY   84  68  58 S17G23    29.87S
GLENCOE        MOSUNNY   87  73  62 S14       29.84S HX  94
FARIBAULT      PTSUNNY   84  70  61 S16G22    29.88F
OWATONNA       PTSUNNY   82  68  61 S12       29.90S
WASECA         PTSUNNY   82  68  61 S16G23    29.90F
ALBERT LEA     CLOUDY    82  66  57 S15       29.91S
$$
MNZ078>079-086>088-094>096-052200-
   Southeast Minnesota

CITY           SKY/WX    TMP DP  RH WIND       PRES   REMARKS
ROCHESTER      PTSUNNY   83  68  60 S18       29.95F
RED WING       PTSUNNY   86  66  51 S13       29.87F
STANTON        PTSUNNY   82  68  61 S15G24    29.86F
DODGE CENTER   PTSUNNY   81  70  69 S15       29.93F
WINONA         PTSUNNY   82  64  54 CALM      29.94F
AUSTIN         PTSUNNY   82  66  57 S12G17    29.93F
PRESTON        PTSUNNY   80  66  61 S10       29.98S
$$
ABBREVIATIONS USED IN REMARKS
   TC - TEMPERATURES IN CELSIUS
  WCI - WIND CHILL INDEX
   HX - HEAT INDEX
  VSB - VISIBILITY
$$



USA.gov is the U.S. government's official web portal to all federal, state and local government web resources and services.